Saint Augustine, FL

12:06 PM EDT on September 25, 2016 (GMT -0400)
Saint Augustine

Weather History for KSGJ - September, 2013

Change the Weather History Date:

Monday, September 2, 2013

  Actual Average Record
Temperature  
Mean Temperature 82 °F -  
Max Temperature 91 °F 84 °F 93 °F (2006)
Min Temperature 73 °F 71 °F 64 °F (1999)
Cooling Degree Days 17    
Growing Degree Days 32 (Base 50)    
Moisture  
Dew Point 74 °F    
Average Humidity 82    
Maximum Humidity 97    
Minimum Humidity 47    
Precipitation  
Precipitation 0.18 in - - ()
Sea Level Pressure  
Sea Level Pressure 29.96 in    
Wind  
Wind Speed 7 mph (SSW)    
Max Wind Speed 16 mph    
Max Gust Speed 18 mph    
Visibility 10 miles    
Events Rain , Thunderstorm    
Averages and records for this station are not official NWS values.
T = Trace of Precipitation, MM = Missing Value Source: NWS Daily Summary

Daily Weather History Graph

Daily Weather History Graph

Search for Another Location

Airport or City:

Trip Planner

Search our weather history database for the weather conditions in past years. The results will help you decide how hot, cold, wet, or windy it might be!

Date:

Astronomy

Sep. 02, 2013 Rise Set
Actual Time 7:03 AM EDT 7:46 PM EDT
Civil Twilight 6:38 AM EDT 8:10 PM EDT
Nautical Twilight 6:10 AM EDT 8:39 PM EDT
Astronomical Twilight 5:40 AM EDT 9:08 PM EDT
Moon 4:26 AM EDT (9/2) 5:53 PM EDT (9/2)
Length of Visible Light 13h 31m
Length of Day
12h 43m
Waning Crescent, 8% of the Moon is Illuminated
Sep 2
Waning Crescent
Sep 5
New
Sep 12
First Quarter
Sep 19
Full
Sep 26
Last Quarter

Hourly Weather History & Observations

Time (EDT) Temp. Heat Index Dew Point Humidity Pressure Visibility Wind Dir Wind Speed Gust Speed Precip Events Conditions
12:58 AM 73.9 °F - 73.0 °F 97% 29.97 in 10.0 mi SSW 9.2 mph - 0.00 in   Clear
1:58 AM 73.9 °F - 73.0 °F 97% 29.96 in 10.0 mi WSW 8.1 mph - N/A   Clear
2:58 AM 73.9 °F - 73.0 °F 97% 29.96 in 10.0 mi SW 6.9 mph - 0.01 in   Clear
3:58 AM 73.9 °F - 73.0 °F 97% 29.96 in 10.0 mi SW 5.8 mph - N/A   Clear
4:58 AM 73.9 °F - 72.0 °F 93% 29.97 in 10.0 mi WSW 4.6 mph - N/A   Clear
5:58 AM 73.0 °F - 72.0 °F 96% 29.97 in 10.0 mi Calm Calm - N/A   Clear
6:58 AM 73.0 °F - 72.0 °F 96% 29.98 in 10.0 mi SW 3.5 mph - N/A   Clear
7:58 AM 75.0 °F - 73.0 °F 94% 29.99 in 10.0 mi SW 5.8 mph - N/A   Clear
8:58 AM 79.0 °F - 75.0 °F 88% 30.01 in 10.0 mi WSW 5.8 mph - N/A   Clear
9:58 AM 82.0 °F 88.6 °F 75.0 °F 79% 30.01 in 10.0 mi WSW 8.1 mph - N/A   Clear
10:58 AM 84.9 °F 92.1 °F 73.9 °F 69% 30.02 in 10.0 mi West 8.1 mph - N/A   Partly Cloudy
11:58 AM 87.1 °F 95.4 °F 73.9 °F 65% 30.01 in 10.0 mi Variable 6.9 mph - N/A   Mostly Cloudy
12:14 PM 87.8 °F 95.6 °F 73.4 °F 62% 30.00 in 9.0 mi West 6.9 mph - N/A   Mostly Cloudy
12:58 PM 89.1 °F 97.0 °F 73.0 °F 59% 30.00 in 10.0 mi WSW 10.4 mph - N/A   Scattered Clouds
1:58 PM 89.1 °F 95.0 °F 71.1 °F 55% 29.97 in 10.0 mi SW 11.5 mph - N/A   Mostly Cloudy
2:58 PM 91.0 °F 95.2 °F 68.0 °F 47% 29.95 in 10.0 mi WSW 8.1 mph - N/A   Partly Cloudy
3:58 PM 90.0 °F 101.3 °F 75.9 °F 63% 29.92 in 10.0 mi SE 13.8 mph 18.4 mph N/A   Clear
4:58 PM 88.0 °F 98.5 °F 75.9 °F 67% 29.91 in 10.0 mi SSE 16.1 mph - N/A   Partly Cloudy
5:58 PM 86.0 °F 95.1 °F 75.0 °F 70% 29.92 in 10.0 mi SSE 11.5 mph - N/A   Mostly Cloudy
6:15 PM 84.2 °F 92.3 °F 75.2 °F 74% 29.92 in 10.0 mi SE 11.5 mph - N/A Thunderstorm Thunderstorm
6:58 PM 77.0 °F - 73.0 °F 88% 29.95 in 3.0 mi NNW 13.8 mph - 0.10 in Rain , Thunderstorm Thunderstorms and Rain
7:58 PM 77.0 °F - 73.9 °F 90% 29.95 in 10.0 mi Calm Calm - 0.04 in Rain , Thunderstorm Light Rain
8:13 PM 77.0 °F - 73.4 °F 89% 29.95 in 8.0 mi ESE 3.5 mph - 0.02 in Rain Light Rain
8:18 PM 77.0 °F - 75.2 °F 94% 29.96 in 8.0 mi SE 3.5 mph - 0.03 in Rain , Thunderstorm Light Rain
8:33 PM 77.0 °F - 73.4 °F 89% 29.96 in 10.0 mi Calm Calm - 0.03 in Rain Light Rain
8:49 PM 78.8 °F - 73.4 °F 83% 29.95 in 10.0 mi Calm Calm - 0.03 in Thunderstorm Mostly Cloudy
8:58 PM 78.1 °F - 73.9 °F 87% 29.96 in 10.0 mi Calm Calm - 0.03 in Thunderstorm Scattered Clouds
9:04 PM 78.8 °F - 73.4 °F 83% 29.96 in 10.0 mi Calm Calm - N/A   Partly Cloudy
9:58 PM 77.0 °F - 75.0 °F 94% 29.95 in 10.0 mi Calm Calm - N/A   Clear
10:58 PM 75.9 °F - 73.9 °F 94% 29.96 in 10.0 mi Calm Calm - N/A   Clear
11:58 PM 75.9 °F - 73.9 °F 94% 29.96 in 10.0 mi South 5.8 mph - N/A   Clear